Preview of NWS' New Version of Forecast
This preview is not operational and should not be used for support decisions.

Regional Weather Roundup (RWR)

Issued by National Weather Service (NWS)

                            
000
ASUS43 KDTX 180010
RWRMI 
MICHIGAN HOURLY REGIONAL WEATHER ROUNDUP
NATIONAL WEATHER SERVICE DETROIT/PONTIAC MI
800 PM EDT WED APR 17 2019

NOTE: "FAIR" INDICATES FEW OR NO CLOUDS BELOW 12,000 FEET WITH NO
SIGNIFICANT WEATHER AND/OR OBSTRUCTION TO VISIBILITY.

MIZ047>049-052>055-059>063-066>070-074>076-081>083-180100-
SOUTHEAST LOWER MICHIGAN
  
CITY           SKY/WX    TMP DP  RH WIND       PRES   REMARKS
ADRIAN         CLOUDY    49  44  83 SE9       29.81F                  
6HR MIN TEMP:  49; 6HR MAX TEMP:  56; 6HR PCP: TRACE;                

ALMA           CLOUDY    56  48  74 E8        29.77F                  
6HR MIN TEMP:  52; 6HR MAX TEMP:  57;                                

ANN ARBOR      LGT RAIN  52  46  80 E9        29.83F                  
BAD AXE        LGT SNOW  46  41  82 E7        29.86S                  
6HR MIN TEMP:  45; 6HR MAX TEMP:  55;                                

CARO           LGT RAIN  54  46  73 E6        29.80F                  
DETROIT CITY   LGT RAIN  52  42  69 SE13      29.85F                  
6HR MIN TEMP:  52; 6HR MAX TEMP:  57; 6HR PCP: TRACE;                

DETROIT        MOCLDY    53  43  68 E7        29.83F                  
6HR MIN TEMP:  53; 6HR MAX TEMP:  58; 6HR PCP: TRACE;                

FLINT          CLOUDY    54  45  71 SE13      29.80F                  
6HR MIN TEMP:  54; 6HR MAX TEMP:  57; 6HR PCP: TRACE;                

GROSSE ILE     MOCLDY    50  44  80 E7        29.83F                  
6HR MIN TEMP:  50; 6HR MAX TEMP:  56;                                

HILLSDALE      CLOUDY    53  45  74 E10       29.79R                  
6HR MIN TEMP:  53; 6HR MAX TEMP:  59;                                

HOWELL         LGT RAIN  55  45  69 SE18      29.80S                  
6HR MIN TEMP:  55; 6HR MAX TEMP:  59;                                


CITY           SKY/WX    TMP DP  RH WIND       PRES   REMARKS
JACKSON        CLOUDY    52  48  86 E14       29.79F                  
6HR MIN TEMP:  52; 6HR MAX TEMP:  60; 6HR PCP:  0.03;                

LAMBERTVILLE   MOCLDY    47  45  90 SE9       29.81F                  
6HR MIN TEMP:  47; 6HR MAX TEMP:  50;                                

LANSING        LGT RAIN  55  49  80 SE12      29.75F                  
6HR MIN TEMP:  56; 6HR MAX TEMP:  61; 6HR PCP: TRACE;                

LAPEER         CLOUDY    55  45  68 SE9       29.81F                  
6HR MIN TEMP:  55; 6HR MAX TEMP:  59;                                

MASON          RAIN      55  48  78 SE10G17   29.78F                  
6HR MIN TEMP:  55; 6HR MAX TEMP:  62;                                

MONROE         FAIR      46  46  97 E12G17    29.82F                  
6HR MIN TEMP:  46; 6HR MAX TEMP:  53;                                

MT. CLEMENS    CLOUDY    51  46  84 SE9       29.83F                  
6HR MIN TEMP:  51; 6HR MAX TEMP:  56;                                

PONTIAC        LGT RAIN  53  44  71 SE12      29.81F                  
6HR MIN TEMP:  52; 6HR MAX TEMP:  55; 6HR PCP: TRACE;                

PORT HOPE        N/A     41  37  86 E9        29.85F                  
6HR MIN TEMP:  40; 6HR MAX TEMP:  42; 6HR PCP:  0.08;                

PORT HURON     CLOUDY    57  41  54 SE9       29.85F                  
TRI CITIES     CLOUDY    50  47  89 NE10      29.81F                  
6HR MIN TEMP:  48; 6HR MAX TEMP:  56; 6HR PCP:  0.03;                

MIDLAND        CLOUDY    45  42  88 E8G17     29.80F                  
6HR MIN TEMP:  45; 6HR MAX TEMP:  54; 6HR PCP:  0.15;                

TROY           LGT RAIN  55  43  64 E8        29.85F                  
SAGINAW HB     CLOUDY    55  50  82 SE6       29.80F                  
$$
MIZ043>046-050>051-056>058-064>065-071>073-077>080-180100-
SOUTHWEST LOWER MICHIGAN
  
CITY           SKY/WX    TMP DP  RH WIND       PRES   REMARKS
BATTLE CREEK   CLOUDY    57  49  74 SE10G18   29.75S                  
6HR MIN TEMP:  57; 6HR MAX TEMP:  65; 6HR PCP:  0.05;                

BENTON HARBOR  MOCLDY    69  52  54 S10       29.66F                  
6HR MIN TEMP:  64; 6HR MAX TEMP:  71;                                

BIG RAPIDS     CLOUDY    47  45  91 E10       29.72F                  
6HR MIN TEMP:  47; 6HR MAX TEMP:  52; 6HR PCP:  0.16;                

COLDWATER      CLOUDY    59  50  71 SE13      29.75F                  
6HR MIN TEMP:  58; 6HR MAX TEMP:  63;                                

FREMONT        FAIR      54  47  78 E12G20    29.67F                  
6HR MIN TEMP:  49; 6HR MAX TEMP:  54;                                

HOLLAND        CLOUDY    63  52  67 SE12      29.66F                  
6HR MIN TEMP:  55; 6HR MAX TEMP:  66;                                

GRAND RAPIDS   MOCLDY    60  49  66 SE15      29.70F                  
6HR MIN TEMP:  50; 6HR MAX TEMP:  64; 6HR PCP: TRACE;                

IONIA          CLOUDY    57  46  67 SE15      29.72F                  
6HR MIN TEMP:  48; 6HR MAX TEMP:  62;                                

KALAMAZOO      CLOUDY    61  50  67 SE9G17    29.73F                  
6HR MIN TEMP:  61; 6HR MAX TEMP:  67; 6HR PCP:  0.03;                

LUDINGTON      CLOUDY    50  47  88 SE12G20   29.64F                  
6HR MIN TEMP:  47; 6HR MAX TEMP:  51; 6HR PCP:  0.44;                

MARSHALL       CLOUDY    55  52  89 E9        29.75F                  
6HR MIN TEMP:  55; 6HR MAX TEMP:  63;                                

MOUNT PLEASANT CLOUDY    47  46  96 E12       29.76F                  
6HR MIN TEMP:  47; 6HR MAX TEMP:  55; 6HR PCP:  0.13;                

MUSKEGON       MOCLDY    59  48  67 E10       29.65F                  
6HR MIN TEMP:  52; 6HR MAX TEMP:  59; 6HR PCP: TRACE;                

SOUTH HAVEN    FAIR      67  52  59 SE8G16    29.67F                  
$$
MIZ016>042-180100-
NORTHERN LOWER MICHIGAN
  
CITY           SKY/WX    TMP DP  RH WIND       PRES   REMARKS
ALPENA         RAIN      40  34  79 SE5       29.90R                  
6HR MIN TEMP:  40; 6HR MAX TEMP:  50; 6HR PCP:  0.05;                

BEAVER ISLAND  LGT RAIN  40  34  80 E21       29.74F WCI  30          
6HR MIN TEMP:  39; 6HR MAX TEMP:  49;                                

BELLAIRE       LGT SNOW  45  40  83 E6G17     29.74F                  
6HR MIN TEMP:  45; 6HR MAX TEMP:  61;                                

CADILLAC       MIX PCPN  45  43  95 E15G26    29.71F                  
CHARLEVOIX     LGT RAIN  43  38  83 E15       29.77F                  
6HR MIN TEMP:  43; 6HR MAX TEMP:  58;                                

FRANKFORT      CLOUDY    50  44  80 SE16G23   29.65F                  
GAYLORD        CLOUDY    40  37  89 SE13G23   29.77F WCI  32          
6HR MIN TEMP:  39; 6HR MAX TEMP:  56; 6HR PCP:  0.16;                

GRAYLING       LGT RAIN  41  41 100 E14       29.76F                  
                                      6HR PCP:  0.30;                

HARBOR SPRINGS LGT RAIN  42  37  82 E15G28    29.77F                  
HOUGHTON LAKE  RAIN      42  39  89 E12       29.77F FOG              
6HR MIN TEMP:  42; 6HR MAX TEMP:  55; 6HR PCP:  0.47;                

MANISTEE       CLOUDY    47  45  93 E18G24    29.64F                  
OSCODA         LGT SNOW  39  35  85 E5        29.89R                  
6HR MIN TEMP:  39; 6HR MAX TEMP:  46; 6HR PCP:  0.16;                

PELLSTON       LGT RAIN  42  35  76 E16       29.80F                  
6HR MIN TEMP:  42; 6HR MAX TEMP:  58; 6HR PCP:  0.08;                

ROGERS CITY    RAIN      42  32  67 SE9       29.90F                  
TRAVERSE CITY  TSTM      46  43  89 SW5G17    29.72F FOG              
6HR MIN TEMP:  46; 6HR MAX TEMP:  58; 6HR PCP:  0.52;                

$$
MIZ007>008-015-180100-
EASTERN UPPER MICHIGAN
  
CITY           SKY/WX    TMP DP  RH WIND       PRES   REMARKS
KINROSS        CLOUDY    45  21  38 E15       29.86F                  
6HR MIN TEMP:  44; 6HR MAX TEMP:  51;                                

MACKINAC ISLAN LGT SNOW  38  30  74 E15G25    29.83F WCI  29          
6HR MIN TEMP:  35; 6HR MAX TEMP:  39; 6HR PCP:  0.01;                

NEWBERRY       LGT RAIN  42  22  43 E17G25    29.78F                  
6HR MIN TEMP:  42; 6HR MAX TEMP:  51;                                

S. S. MARIE    CLOUDY    47  22  37 E8        29.87F                  
6HR MIN TEMP:  47; 6HR MAX TEMP:  50;                                

MUNISING         N/A     43  35  73 MISG      29.72F                  
6HR MIN TEMP:  43; 6HR MAX TEMP:  59; 6HR PCP:  0.02;                

$$
MIZ004>006-011>014-085-180100-
CENTRAL UPPER MICHIGAN
  
CITY           SKY/WX    TMP DP  RH WIND       PRES   REMARKS
MANISTIQUE     LGT RAIN  39  33  80 E12G18    29.73F WCI  31          
6HR MIN TEMP:  39; 6HR MAX TEMP:  51;                                

ESCANABA       LGT RAIN  39  36  89 E12       29.68F WCI  32          
6HR MIN TEMP:  38; 6HR MAX TEMP:  45; 6HR PCP:  0.20;                

MENOMINEE      LGT RAIN  43  43 100 E15       29.62F FOG              
6HR MIN TEMP:  38; 6HR MAX TEMP:  44; 6HR PCP:  0.62;                

SAWYER-GWINN   DRIZZLE   43  39  87 E12G17    29.66F                  
$$
MIZ001>003-009>011-084-180100-
WESTERN UPPER MICHIGAN
  
CITY           SKY/WX    TMP DP  RH WIND       PRES   REMARKS
IRON MOUNTAIN  RAIN      41  39  93 E6        29.65F FOG              
6HR MIN TEMP:  41; 6HR MAX TEMP:  54; 6HR PCP:  0.29;                

HOUGHTON       LGT RAIN  39  29  67 E7        29.73F WCI  34          
6HR MIN TEMP:  39; 6HR MAX TEMP:  53; 6HR PCP: TRACE;                

COPPER HARBOR    N/A     41  33  73 VRB5      29.78S                  
6HR MIN TEMP:  38; 6HR MAX TEMP:  51;                                

IRONWOOD       LGT RAIN  39  37  93 NE6       29.71R WCI  35          
$$

ABBREVIATIONS USED IN REMARKS
   TC - TEMPERATURE IN CELSIUS
  WCI - WIND CHILL INDEX
   HX - HEAT INDEX
  VSB - VISIBILITY